Regional Weather Roundup
Issued by NWS

Home | Current Version | Previous Version | Text Only | Print | Product List | Glossary Off
Versions: 1 2 3 4 5 6 7 8 9 10 11 12 13 14 15 16 17 18 19 20 21 22 23 24 25 26 27 28 29 30 31 32 33 34 35 36 37 38 39 40 41 42 43 44 45 46 47 48 49 50

000
ASUS43 KFSD 010210
RWRSD

WEATHER ROUNDUP FOR SOUTH DAKOTA
NATIONAL WEATHER SERVICE SIOUX FALLS SD
900 PM CDT TUE MAR 31 2015

NOTE: "FAIR" INDICATES FEW OR NO CLOUDS BELOW 12,000 FEET WITH NO
SIGNIFICANT WEATHER AND/OR OBSTRUCTIONS TO VISIBILITY.


SDZ001>005-009-010-012>017-010300-
NORTHWEST AND NORTH CENTRAL SOUTH DAKOTA

CITY           SKY/WX    TMP DP  RH WIND       PRES   REMARKS
BUFFALO          N/A     65  25  22 S9        29.56F
FAITH            N/A     62  23  22 S13       29.63F
MOBRIDGE       MOCLDY    62  30  29 SE10      29.60F
$$

SDZ012>016-024>037-041>051-057-063-072>074-010300-
SOUTHWEST AND SOUTH CENTRAL SOUTH DAKOTA

CITY           SKY/WX    TMP DP  RH WIND       PRES   REMARKS
RAPID CTY ARPT CLOUDY    63  24  22 SE3       29.66F
PIERRE         CLOUDY    65  26  23 S6        29.64F
CUSTER         CLOUDY    60  13  15 S3        29.78F
ELLSWORTH AFB  CLOUDY    65  25  21 S5        29.65F
PHILIP         CLOUDY    64  18  17 E3        29.64F
PINE RIDGE     MOCLDY    57  25  29 NE9       29.70F
SPEARFISH      FAIR      57  27  30 SE6       29.68F
WINNER         FAIR      64  25  22 S10       29.70F
$$

SDZ004>011-016>023-039-040-010300-
NORTHEAST SOUTH DAKOTA

CITY           SKY/WX    TMP DP  RH WIND       PRES   REMARKS
ABERDEEN       CLOUDY    57  32  38 E9        29.69F
WATERTOWN      MOCLDY    60  32  34 E7        29.76F
SISSETON         N/A     52  34  50 SE7       29.77S
$$

SDZ017-020-022-023-036>040-048>070-010300-
SOUTHEAST SOUTH DAKOTA

CITY           SKY/WX    TMP DP  RH WIND       PRES   REMARKS
SIOUX FALLS    PTCLDY    67  30  25 SE12      29.79S
HURON          CLOUDY    65  30  27 SE9       29.70S
CHAMBERLAIN    MOCLDY    58  27  31 SE7       29.69S
MITCHELL       CLOUDY    63  33  32 S10       29.73S
YANKTON        CLEAR     66  30  26 SE8       29.78S
$$

ABBREVIATIONS USED IN REMARKS
   TC - TEMPERATURE IN CELSIUS
  WCI - WIND CHILL INDEX
   HX - HEAT INDEX
  VSB - VISIBILITY



USA.gov is the U.S. government's official web portal to all federal, state and local government web resources and services.